Location: Poughquag
(41.6090°N, 73.6820°W)
Time: 20:47:09
(UTC-04:00)

CUBESAT XI-V - Pass Details

Date: 21 April 2024
Orbit: 657 x 680 km, 98.2° (Epoch: 23 May)

Event Time Altitude Azimuth Distance (km) Brightness Sun altitude
Exits shadow 03:39:25 25° 307° (NW) 1,368 ? -24.1°
Drops below altitude 10° 03:41:45 10° 329° (NNW) 2,119 ? -23.8°
Sets 03:44:09 0° 338° (NNW) 3,035 ? -23.5°
